Regional Weather Roundup
Issued by NWS

Home | Current Version | Previous Version | Text Only | Print | Product List | Glossary Off
Versions: 1 2 3 4 5 6 7 8 9 10 11 12 13 14 15 16 17 18 19 20 21 22 23 24 25 26 27 28 29 30 31 32 33 34 35 36 37 38 39 40 41 42 43 44 45 46 47 48 49 50

219
ASUS44 KJAN 190603
RWRMS

MISSISSIPPI HOURLY WEATHER ROUNDUP
NATIONAL WEATHER SERVICE JACKSON MS
100 AM CDT FRI SEP 19 2014

NOTE: "FAIR: INDICATES FEW OR NO CLOUDS BELOW 12,000 FEET WITH NO
SIGNIFICANT WEATHER AND/OR OBSTRUCTIONS TO VISIBILITY.

MSZ001>002-007>008-010>013-018>021-025>028-034>036-190700-
NORTHWEST MISSISSIPPI

CITY           SKY/WX    TMP DP  RH WIND       PRES   REMARKS
CLARKSDALE       N/A     68  68 100 NE3       30.00S
CLEVELAND      FAIR      70  70 100 E7        29.97S
GREENWOOD      CLOUDY    70  68  93 NE6       29.99S
6HR MIN TEMP:  70; 6HR MAX TEMP:  72; 6HR PCP: TRACE;

GREENVILLE     PTCLDY    71  67  87 NE5       29.97R
6HR MIN TEMP:  70; 6HR MAX TEMP:  77;

GRENADA        MOCLDY    68  68 100 SE7       30.01S
OLIVE BRANCH   PTCLDY    66  66 100 SE3       30.02S
OXFORD         FAIR      64  64 100 SE3       30.02F FOG
TUNICA         CLEAR     66  64  94 E3        30.01S
$$

MSZ003>006-009-014>017-022>024-029>033-037>039-190700-
NORTHEAST MISSISSIPPI

CITY           SKY/WX    TMP DP  RH WIND       PRES   REMARKS
COLUMBUS AFB   CLOUDY    69  69 100 CALM      29.98F
6HR MIN TEMP:  68; 6HR MAX TEMP:  75; 6HR PCP:  1.04;

CORINTH        CLOUDY    68  66  94 CALM      30.01S
GOLDN TRIANGLE CLOUDY    68  64  88 CALM      30.00S
STARKVILLE     FAIR      68  66  94 CALM      30.00F
TUPELO         CLOUDY    69  67  93 E3        30.00F
6HR MIN TEMP:  67; 6HR MAX TEMP:  75; 6HR PCP:  1.09;

$$

MSZ040-058-190700-
CENTRAL MISSISSIPPI

CITY           SKY/WX    TMP DP  RH WIND       PRES   REMARKS
JACKSON INTL   CLOUDY    70  68  93 CALM      29.95F
6HR MIN TEMP:  70; 6HR MAX TEMP:  73; 6HR PCP:  0.02;

JACKSON HAWKNS CLOUDY    71  66  84 CALM      29.96F
6HR MIN TEMP:  70; 6HR MAX TEMP:  73; 6HR PCP: TRACE;

MERIDIAN KEY   CLOUDY    69  68  96 N6        29.95F
6HR MIN TEMP:  69; 6HR MAX TEMP:  76; 6HR PCP:  0.29;

MERIDIAN NAS   CLOUDY    70  68  93 S3        29.96F FOG
6HR MIN TEMP:  70; 6HR MAX TEMP:  73; 6HR PCP:  0.30;

RAYMOND        FAIR      70  64  83 CALM      29.96F
VICKSBURG      MOCLDY    72  66  81 S7        29.97R
6HR MIN TEMP:  72; 6HR MAX TEMP:  78;

$$

MSZ059>079-190700-
SOUTH MISSISSIPPI

CITY           SKY/WX    TMP DP  RH WIND       PRES   REMARKS
BROOKHAVEN     FAIR      70  68  94 CALM      29.98F
COLUMBIA       FAIR      70  68  94 CALM      29.95F FOG
HATTIESBURG    CLOUDY    71  69  93 CALM      29.96F
6HR MIN TEMP:  71; 6HR MAX TEMP:  76; 6HR PCP: TRACE;

MCCOMB         LGT RAIN  71  69  93 CALM      29.95F
6HR MIN TEMP:  71; 6HR MAX TEMP:  81; 6HR PCP:  0.18;

NATCHEZ        CLOUDY    72  68  88 SE9       29.97F
6HR MIN TEMP:  70; 6HR MAX TEMP:  81; 6HR PCP:  0.08;

PINE BELT      CLOUDY    70  64  83 CALM      29.96F
$$

MSZ080>082-190700-
COASTAL MISSISSIPPI

CITY           SKY/WX    TMP DP  RH WIND       PRES   REMARKS
BILOXI         CLOUDY    73  70  89 NW3       29.95S
6HR MIN TEMP:  72; 6HR MAX TEMP:  75; 6HR PCP:  0.65;

PASCAGOULA     CLOUDY    72  69  90 N6        29.94S
6HR MIN TEMP:  71; 6HR MAX TEMP:  73; 6HR PCP: TRACE;

GULFPORT       CLOUDY    73  69  87 N3        29.95F
6HR MIN TEMP:  72; 6HR MAX TEMP:  83; 6HR PCP:  0.49;

$$



USA.gov is the U.S. government's official web portal to all federal, state and local government web resources and services.